COSMOS 2491 DEB, 47110

Orbit data source: Space-Track

COSMOS 2491 DEB, 47110 is space debris in LEO originally from a launch on Wed, 25 Dec 2013 UTC launched from the Plesetsk Missile And Space Complex (PKMTR). Debris objects in space refer to the collection of defunct objects orbiting the Earth. Examples of debris include non-operational satellites, rocket bodies, and fragments generated from explosions, collisions, or faulty payload assembly.

Loading next visibility...
Identifier
47110, 2013-076AF
Orbit
LEO
Country
Flag of CISCIS
Related business
Manufacturer
TsNIIKhM
Mission
Spacecraft
Bus & Motor
Unknown
Mass
Unknown
Launch date (UTC)
2013-12-25 (12 years ago)
Launch vehicle
Unknown
Launch site
Plesetsk Missile And Space Complex (PKMTR)
Object type
Payload
Rocket body
Debris
Shape & HBR
Unknown shape, 0.1 m
Radar Cross Section
Small (<0.1 m²)

Expand to show TLE details & history
Last TLE update: 5 days ago

TLE from 5 days ago
0 COSMOS 2491 DEB
1 47110U 13076AF  26136.75763922  .00001475  00000-0  85744-2 0  9996
2 47110  82.4491 154.7704 0045807 265.3771  94.2085 12.58579392287642
Epoch: 2026-05-16T18:11Z
TLE epoch observation values (Epoch: 2026-05-16T18:11:00.028Z)
Latitude
-0.00001°
Longitude
7.55026°
Altitude
1,434.322 km
Speed
7.143 km/s
True Right ascension
10h 19m 04s
True Declination
0° 00' 00"
Sunlit
Object was in daylight at epoch
Visualization orbit readout
Latitude
Unknown
Longitude
Unknown
Altitude
Unknown
Speed
Unknown
Apparent Right ascension
Unknown
Apparent Declination
Unknown
Sunlit
N/A
Visualization observer readout
Local Sidereal Time
20:02:59
Azimuth
Unknown
Elevation
Unknown
Doppler factor
Unknown
Orbital elements
Apogee altitude
1,461.894 km
Perigee altitude
1,390.395 km
Semi-major axis
7,804.281 km
Eccentricity
0.00458
Inclination
82.4491°
RAAN
154.7704°
Arg. of periapsis
265.3771°
True anomaly
94.73177°
Mean anomaly
94.2085°
Eccentric anomaly
94.47016°
Mean motion
3.14807 °/min
Orbital period
114.36 mins
BSTAR
0.0085744
Loading maneuver chart data...
Computing Atmospheric mass density...
Loading historical data...
Loading historical data...
Loading historical data...
Loading historical data...
Loading historical data...
Loading historical data...
Loading historical data...

Documentation

Showing up to 5 results
|